Time,TemperatureF,DewpointF,PressureIn,WindDirection,WindDirectionDegrees,WindSpeedMPH,WindSpeedGustMPH,Humidity,HourlyPrecipIn,Conditions,Clouds,dailyrainin,SoftwareType,DateUTC
2013-01-20 00:00:00,24.5,4.0,30.36,SSW,209,4.0,6.0,42,0.00,,,0.00,weatherlink.com 1.10,2013-01-20 07:00:00,
2013-01-20 00:15:00,24.2,4.0,30.36,SW,223,5.0,6.0,42,0.00,,,0.00,weatherlink.com 1.10,2013-01-20 07:15:00,
2013-01-20 00:30:00,23.2,4.0,30.36,SW,219,1.0,4.0,43,0.00,,,0.00,weatherlink.com 1.10,2013-01-20 07:30:00,
2013-01-20 00:45:00,21.9,3.0,30.36,SW,219,0.0,3.0,44,0.00,,,0.00,weatherlink.com 1.10,2013-01-20 07:45:00,
2013-01-20 01:00:00,20.6,2.0,30.36,WSW,237,4.0,7.0,45,0.00,,,0.00,weatherlink.com 1.10,2013-01-20 08:00:00,
2013-01-20 01:15:00,19.5,2.0,30.36,West,269,3.0,7.0,47,0.00,,,0.00,weatherlink.com 1.10,2013-01-20 08:15:00,
2013-01-20 01:30:00,19.0,3.0,30.37,West,260,3.0,5.0,49,0.00,,,0.00,weatherlink.com 1.10,2013-01-20 08:30:00,
2013-01-20 01:45:00,18.2,2.0,30.37,West,260,2.0,2.0,50,0.00,,,0.00,weatherlink.com 1.10,2013-01-20 08:45:00,
2013-01-20 02:00:00,17.2,2.0,30.37,WSW,254,2.0,4.0,51,0.00,,,0.00,weatherlink.com 1.10,2013-01-20 09:00:00,
2013-01-20 02:15:00,15.8,2.0,30.37,WSW,238,4.0,4.0,54,0.00,,,0.00,weatherlink.com 1.10,2013-01-20 09:15:00,
2013-01-20 02:33:00,14.8,2.0,30.36,SSW,206,5.0,7.0,56,0.00,,,0.00,weatherlink.com 1.10,2013-01-20 09:33:00,
2013-01-20 02:45:00,15.2,2.0,30.36,SSE,165,3.0,4.0,57,0.00,,,0.00,weatherlink.com 1.10,2013-01-20 09:45:00,
2013-01-20 03:00:00,15.5,2.0,30.36,SSW,192,3.0,7.0,56,0.00,,,0.00,weatherlink.com 1.10,2013-01-20 10:00:00,
2013-01-20 03:15:00,16.0,2.0,30.36,SSW,196,1.0,5.0,55,0.00,,,0.00,weatherlink.com 1.10,2013-01-20 10:15:00,
2013-01-20 03:30:00,16.1,2.0,30.36,SSW,196,1.0,4.0,54,0.00,,,0.00,weatherlink.com 1.10,2013-01-20 10:30:00,
2013-01-20 03:45:00,16.0,2.0,30.35,SSW,205,3.0,6.0,53,0.00,,,0.00,weatherlink.com 1.10,2013-01-20 10:45:00,
2013-01-20 04:00:00,15.9,1.0,30.35,South,183,1.0,7.0,53,0.00,,,0.00,weatherlink.com 1.10,2013-01-20 11:00:00,
2013-01-20 04:15:00,16.5,2.0,30.35,SSW,198,4.0,9.0,53,0.00,,,0.00,weatherlink.com 1.10,2013-01-20 11:15:00,
2013-01-20 04:30:00,17.8,2.0,30.35,South,190,1.0,6.0,51,0.00,,,0.00,weatherlink.com 1.10,2013-01-20 11:30:00,
2013-01-20 04:45:00,17.4,2.0,30.35,SW,215,3.0,4.0,50,0.00,,,0.00,weatherlink.com 1.10,2013-01-20 11:45:00,
2013-01-20 05:00:00,16.9,2.0,30.35,SW,217,0.0,3.0,51,0.00,,,0.00,weatherlink.com 1.10,2013-01-20 12:00:00,
2013-01-20 05:15:00,15.9,1.0,30.35,SW,216,4.0,6.0,51,0.00,,,0.00,weatherlink.com 1.10,2013-01-20 12:15:00,
2013-01-20 05:30:00,16.0,0.0,30.35,SSW,201,6.0,7.0,50,0.00,,,0.00,weatherlink.com 1.10,2013-01-20 12:30:00,
2013-01-20 05:45:00,16.8,1.0,30.35,SSW,193,3.0,8.0,49,0.00,,,0.00,weatherlink.com 1.10,2013-01-20 12:45:00,
2013-01-20 06:01:00,17.5,1.0,30.35,SSW,200,0.0,3.0,48,0.00,,,0.00,weatherlink.com 1.10,2013-01-20 13:01:00,
2013-01-20 06:16:00,17.1,0.0,30.35,SSW,208,3.0,6.0,48,0.00,,,0.00,weatherlink.com 1.10,2013-01-20 13:16:00,
2013-01-20 06:31:00,17.5,0.0,30.35,SSW,209,3.0,7.0,47,0.00,,,0.00,weatherlink.com 1.10,2013-01-20 13:31:00,
2013-01-20 06:46:00,18.9,1.0,30.34,SSW,196,7.0,7.0,45,0.00,,,0.00,weatherlink.com 1.10,2013-01-20 13:46:00,
2013-01-20 07:01:00,19.6,0.0,30.34,SSW,192,3.0,6.0,43,0.00,,,0.00,weatherlink.com 1.10,2013-01-20 14:01:00,
2013-01-20 07:16:00,19.8,1.0,30.34,SSW,194,3.0,7.0,43,0.00,,,0.00,weatherlink.com 1.10,2013-01-20 14:16:00,
2013-01-20 07:31:00,19.2,0.0,30.35,South,177,3.0,5.0,43,0.00,,,0.00,weatherlink.com 1.10,2013-01-20 14:31:00,
2013-01-20 07:46:00,18.8,0.0,30.35,South,176,1.0,2.0,43,0.00,,,0.00,weatherlink.com 1.10,2013-01-20 14:46:00,
2013-01-20 08:01:00,19.3,0.0,30.35,South,180,3.0,3.0,43,0.00,,,0.00,weatherlink.com 1.10,2013-01-20 15:01:00,
2013-01-20 08:16:00,22.9,2.0,30.35,SSW,195,3.0,6.0,41,0.00,,,0.00,weatherlink.com 1.10,2013-01-20 15:16:00,
2013-01-20 08:31:00,28.2,3.0,30.35,SSW,211,3.0,5.0,34,0.00,,,0.00,weatherlink.com 1.10,2013-01-20 15:31:00,
2013-01-20 08:46:00,31.0,3.0,30.35,SSE,148,2.0,6.0,30,0.00,,,0.00,weatherlink.com 1.10,2013-01-20 15:46:00,
2013-01-20 09:01:00,33.4,2.0,30.36,SSE,163,2.0,6.0,26,0.00,,,0.00,weatherlink.com 1.10,2013-01-20 16:01:00,
2013-01-20 09:16:00,34.4,1.0,30.36,SSW,207,1.0,8.0,24,0.00,,,0.00,weatherlink.com 1.10,2013-01-20 16:16:00,
2013-01-20 09:31:00,35.7,1.0,30.36,South,169,8.0,9.0,23,0.00,,,0.00,weatherlink.com 1.10,2013-01-20 16:31:00,
2013-01-20 09:46:00,36.0,1.0,30.36,South,190,1.0,9.0,23,0.00,,,0.00,weatherlink.com 1.10,2013-01-20 16:46:00,
2013-01-20 10:01:00,37.0,1.0,30.36,SE,143,4.0,8.0,22,0.00,,,0.00,weatherlink.com 1.10,2013-01-20 17:01:00,
2013-01-20 10:16:00,39.1,2.0,30.36,SE,134,1.0,4.0,21,0.00,,,0.00,weatherlink.com 1.10,2013-01-20 17:16:00,
2013-01-20 10:31:00,40.3,3.0,30.35,ESE,122,1.0,5.0,21,0.00,,,0.00,weatherlink.com 1.10,2013-01-20 17:31:00,
2013-01-20 10:47:00,41.5,5.0,30.35,ENE,64,0.0,3.0,22,0.00,,,0.00,weatherlink.com 1.10,2013-01-20 17:47:00,
2013-01-20 11:02:00,40.9,6.0,30.35,NNW,346,7.0,8.0,23,0.00,,,0.00,weatherlink.com 1.10,2013-01-20 18:02:00,
2013-01-20 11:17:00,38.9,6.0,30.34,NW,319,4.0,6.0,25,0.00,,,0.00,weatherlink.com 1.10,2013-01-20 18:17:00,
2013-01-20 11:32:00,38.8,2.0,30.33,NNW,347,3.0,6.0,21,0.00,,,0.00,weatherlink.com 1.10,2013-01-20 18:32:00,
2013-01-20 11:47:00,40.2,5.0,30.33,NNW,342,1.0,7.0,23,0.00,,,0.00,weatherlink.com 1.10,2013-01-20 18:47:00,
2013-01-20 12:02:00,40.4,6.0,30.32,NW,321,9.0,9.0,24,0.00,,,0.00,weatherlink.com 1.10,2013-01-20 19:02:00,
2013-01-20 12:17:00,39.5,10.0,30.31,NW,319,6.0,9.0,29,0.00,,,0.00,weatherlink.com 1.10,2013-01-20 19:17:00,
2013-01-20 12:32:00,39.1,10.0,30.31,NW,323,8.0,11.0,30,0.00,,,0.00,weatherlink.com 1.10,2013-01-20 19:32:00,
2013-01-20 12:47:00,38.7,7.0,30.30,NNW,346,6.0,11.0,27,0.00,,,0.00,weatherlink.com 1.10,2013-01-20 19:47:00,
2013-01-20 13:02:00,39.2,8.0,30.30,WNW,298,7.0,8.0,27,0.00,,,0.00,weatherlink.com 1.10,2013-01-20 20:02:00,
2013-01-20 13:17:00,39.3,7.0,30.30,NNE,22,7.0,10.0,26,0.00,,,0.00,weatherlink.com 1.10,2013-01-20 20:17:00,
2013-01-20 13:32:00,39.3,8.0,30.30,NNW,342,6.0,8.0,27,0.00,,,0.00,weatherlink.com 1.10,2013-01-20 20:32:00,
2013-01-20 13:47:00,39.0,7.0,30.29,NW,321,8.0,10.0,27,0.00,,,0.00,weatherlink.com 1.10,2013-01-20 20:47:00,
2013-01-20 14:03:00,38.5,7.0,30.29,North,355,8.0,9.0,27,0.00,,,0.00,weatherlink.com 1.10,2013-01-20 21:03:00,
2013-01-20 14:33:00,38.0,7.0,30.30,North,5,6.0,7.0,27,0.00,,,0.00,weatherlink.com 1.10,2013-01-20 21:33:00,
2013-01-20 14:48:00,37.8,6.0,30.30,NW,324,8.0,9.0,26,0.00,,,0.00,weatherlink.com 1.10,2013-01-20 21:48:00,
2013-01-20 15:03:00,37.5,5.0,30.30,North,351,6.0,10.0,26,0.00,,,0.00,weatherlink.com 1.10,2013-01-20 22:03:00,
2013-01-20 15:18:00,37.2,6.0,30.30,NNW,327,1.0,8.0,27,0.00,,,0.00,weatherlink.com 1.10,2013-01-20 22:18:00,
2013-01-20 15:33:00,36.9,6.0,30.30,North,5,5.0,8.0,27,0.00,,,0.00,weatherlink.com 1.10,2013-01-20 22:33:00,
2013-01-20 15:48:00,36.5,5.0,30.30,NW,321,4.0,8.0,27,0.00,,,0.00,weatherlink.com 1.10,2013-01-20 22:48:00,
2013-01-20 16:03:00,36.3,4.0,30.30,NNW,343,5.0,8.0,26,0.00,,,0.00,weatherlink.com 1.10,2013-01-20 23:03:00,
2013-01-20 16:18:00,35.7,5.0,30.30,NNW,332,3.0,6.0,27,0.00,,,0.00,weatherlink.com 1.10,2013-01-20 23:18:00,
2013-01-20 16:33:00,34.7,5.0,30.30,NNW,332,1.0,3.0,29,0.00,,,0.00,weatherlink.com 1.10,2013-01-20 23:33:00,
2013-01-20 16:48:00,33.4,5.0,30.29,NNW,332,1.0,2.0,30,0.00,,,0.00,weatherlink.com 1.10,2013-01-20 23:48:00,
2013-01-20 17:03:00,31.5,6.0,30.30,NNW,332,0.0,0.0,34,0.00,,,0.00,weatherlink.com 1.10,2013-01-21 00:03:00,
2013-01-20 17:19:00,28.9,4.0,30.30,NNW,332,0.0,0.0,35,0.00,,,0.00,weatherlink.com 1.10,2013-01-21 00:19:00,
2013-01-20 17:34:00,27.2,5.0,30.30,NNW,332,1.0,1.0,38,0.00,,,0.00,weatherlink.com 1.10,2013-01-21 00:34:00,
2013-01-20 17:49:00,26.2,4.0,30.30,NNW,331,2.0,4.0,38,0.00,,,0.00,weatherlink.com 1.10,2013-01-21 00:49:00,
2013-01-20 18:04:00,25.2,3.0,30.31,NW,315,3.0,4.0,38,0.00,,,0.00,weatherlink.com 1.10,2013-01-21 01:04:00,
2013-01-20 18:19:00,24.3,3.0,30.31,WNW,286,0.0,4.0,39,0.00,,,0.00,weatherlink.com 1.10,2013-01-21 01:19:00,
2013-01-20 18:34:00,23.5,4.0,30.31,WNW,286,0.0,2.0,43,0.00,,,0.00,weatherlink.com 1.10,2013-01-21 01:34:00,
2013-01-20 18:49:00,22.6,3.0,30.31,WNW,286,2.0,3.0,43,0.00,,,0.00,weatherlink.com 1.10,2013-01-21 01:49:00,
2013-01-20 19:04:00,21.2,3.0,30.32,WNW,284,1.0,3.0,46,0.00,,,0.00,weatherlink.com 1.10,2013-01-21 02:04:00,
2013-01-20 19:19:00,19.9,4.0,30.32,West,271,3.0,4.0,50,0.00,,,0.00,weatherlink.com 1.10,2013-01-21 02:19:00,
2013-01-20 19:34:00,19.2,5.0,30.32,West,271,0.0,2.0,53,0.00,,,0.00,weatherlink.com 1.10,2013-01-21 02:34:00,
2013-01-20 19:49:00,18.6,4.0,30.32,West,271,0.0,1.0,54,0.00,,,0.00,weatherlink.com 1.10,2013-01-21 02:49:00,
2013-01-20 20:04:00,18.0,4.0,30.33,SW,223,1.0,4.0,54,0.00,,,0.00,weatherlink.com 1.10,2013-01-21 03:04:00,
2013-01-20 20:19:00,17.7,4.0,30.33,SSW,201,4.0,6.0,55,0.00,,,0.00,weatherlink.com 1.10,2013-01-21 03:19:00,
2013-01-20 20:34:00,17.8,4.0,30.33,SSW,201,1.0,3.0,56,0.00,,,0.00,weatherlink.com 1.10,2013-01-21 03:34:00,
2013-01-20 20:49:00,18.0,4.0,30.33,SSW,201,0.0,3.0,55,0.00,,,0.00,weatherlink.com 1.10,2013-01-21 03:49:00,
2013-01-20 21:05:00,17.5,4.0,30.34,SSW,202,3.0,3.0,56,0.00,,,0.00,weatherlink.com 1.10,2013-01-21 04:05:00,
2013-01-20 21:20:00,16.9,4.0,30.34,SSW,209,2.0,4.0,58,0.00,,,0.00,weatherlink.com 1.10,2013-01-21 04:20:00,
2013-01-20 21:35:00,16.4,4.0,30.34,SW,219,5.0,5.0,58,0.00,,,0.00,weatherlink.com 1.10,2013-01-21 04:35:00,
2013-01-20 21:50:00,17.5,5.0,30.34,SSW,209,4.0,7.0,57,0.00,,,0.00,weatherlink.com 1.10,2013-01-21 04:50:00,
2013-01-20 22:05:00,19.4,5.0,30.34,SSW,198,5.0,7.0,54,0.00,,,0.00,weatherlink.com 1.10,2013-01-21 05:05:00,
2013-01-20 22:20:00,20.7,5.0,30.34,SSW,194,3.0,7.0,50,0.00,,,0.00,weatherlink.com 1.10,2013-01-21 05:20:00,
2013-01-20 22:35:00,22.1,5.0,30.33,SSW,192,7.0,11.0,47,0.00,,,0.00,weatherlink.com 1.10,2013-01-21 05:35:00,
2013-01-20 22:50:00,23.0,4.0,30.33,South,190,2.0,9.0,44,0.00,,,0.00,weatherlink.com 1.10,2013-01-21 05:50:00,
2013-01-20 23:05:00,23.1,4.0,30.33,South,188,3.0,5.0,43,0.00,,,0.00,weatherlink.com 1.10,2013-01-21 06:05:00,
2013-01-20 23:20:00,23.6,4.0,30.32,SSE,163,3.0,9.0,43,0.00,,,0.00,weatherlink.com 1.10,2013-01-21 06:20:00,
2013-01-20 23:35:00,24.7,4.0,30.32,SE,142,1.0,7.0,41,0.00,,,0.00,weatherlink.com 1.10,2013-01-21 06:35:00,
2013-01-20 23:50:00,24.3,4.0,30.32,SE,142,0.0,2.0,41,0.00,,,0.00,weatherlink.com 1.10,2013-01-21 06:50:00,